#timestamp,LO_Frequency,Hit,StdDev 
1609833615.4,286047001.9,N
1609833635.2,286046998.1,N
1609833655.1,286047005.0,N
1609833656.0,286047005.0,N
1609833675.8,286047006.5,N
1609833695.7,286047005.2,N
1609833715.5,286047008.7,N
1609833735.4,286047003.5,N
1609833755.2,286046999.5,N
1609833775.0,286047000.4,N
1609833775.9,286047000.4,N
1609833795.8,286047001.0,N
1609833815.6,286046996.6,N
1609833835.5,286046999.9,N
1609833855.3,286046999.6,N
1609833875.1,286046999.7,N
1609833895.9,286046999.2,N
1609833915.7,286047001.7,N
1609833935.5,286047003.0,N
1609833955.4,286047004.2,N
1609833975.2,286047002.7,N
1609833995.1,286046996.5,N
1609833996.0,286046996.5,N
1609834015.8,286047000.8,N
1609834035.6,286046996.7,N
1609834055.5,286046991.9,N
1609834075.3,286047000.9,N
1609834095.2,286046998.8,N
1609834115.9,286047002.0,N
1609834135.7,286046998.4,N
1609834155.6,286046996.0,N
1609834175.4,286046994.2,N
1609834195.3,286046990.5,N
1609834215.1,286046994.4,N
1609834216.0,286046994.4,N
1609834235.8,286046994.4,N
1609834255.7,286046994.2,N
1609834275.5,286046996.7,N
1609834295.3,286046995.1,N
1609834315.2,286046991.8,N
1609834335.0,286047002.6,N
1609834335.9,286047002.6,N
1609834355.8,286046999.5,N
1609834375.6,286046997.9,N
1609834395.4,286046994.4,N
1609834415.3,286046997.2,N
1609834435.1,286046995.2,N
1609834455.9,286046993.5,N
1609834475.7,286046993.5,N
1609834495.6,286046994.1,N
1609834515.4,286046994.9,N
1609834535.2,286046997.9,N
1609834555.1,286047000.7,N
1609834556.0,286047000.7,N
1609834575.8,286046999.7,N
1609834595.7,286047001.6,N
1609834615.5,286047001.9,N
1609834635.3,286047003.1,N
1609834655.2,286047000.8,N
1609834675.9,286047000.6,N
1609834695.7,286047000.7,N
1609834715.6,286046999.9,N
1609834735.4,286047002.6,N
1609834755.3,286046999.7,N
1609834775.1,286046999.5,N
1609834776.0,286046999.5,N
1609834795.8,286046989.9,Y
1609834815.7,286046988.9,P
1609834835.5,286046993.1,N
1609834855.4,286046988.4,N
1609834875.2,286046994.0,N
1609834895.0,286046996.2,N
1609834895.9,286046996.2,N
1609834915.8,286046993.2,N
1609834935.6,286046993.5,N
1609834955.5,286046993.3,N
1609834975.3,286046995.0,N
1609834995.1,286046997.4,N
1609835015.9,286046996.2,N
1609835035.7,286046993.7,N
1609835055.6,286046990.3,Y
1609835075.4,286046998.4,P
1609835095.2,286046995.2,N
1609835115.1,286046990.7,P
1609835116.0,286046990.7,Y
1609835135.8,286047005.7,P
1609835155.7,286047006.2,N
1609835175.5,286047001.1,N
1609835195.3,286046998.8,N
1609835215.2,286046996.7,N
1609835235.0,286046992.5,N
1609835235.9,286046992.5,N
1609835255.8,286046987.0,N
1609835275.6,286046988.8,N
1609835295.4,286046985.7,N
1609835315.3,286046985.8,N
1609835335.1,286046987.9,N
1609835355.8,286046994.7,N
1609835375.7,286047001.8,N
1609835395.5,286047007.8,N
1609835415.4,286047004.7,N
1609835435.2,286047011.6,N
1609835455.0,286047005.9,N
1609835455.9,286047005.9,N
1609835475.8,286047009.0,N
1609835495.6,286047006.0,N
1609835515.5,286047008.3,N
1609835535.3,286047006.7,N
1609835555.1,286047009.5,N
1609835575.9,286047012.4,N
1609835595.7,286047010.8,N
1609835615.5,286047004.7,N
1609835635.4,286047009.0,N
1609835655.2,286047002.9,N
1609835675.1,286047004.1,N
1609835676.0,286047004.1,N
1609835695.8,286047001.9,N
1609835715.6,286047003.8,N
1609835735.5,286046996.5,N
1609835755.3,286046996.9,N
1609835775.2,286046998.5,N
1609835795.9,286047005.3,N
1609835815.7,286046998.2,N
1609835835.6,286047003.0,N
1609835855.4,286047014.1,N
1609835875.2,286047007.8,N
1609835895.1,286047005.3,N
1609835896.0,286047005.3,N
1609835915.8,286047006.8,N
1609835935.7,286047005.1,N
1609835955.5,286047005.5,N
1609835975.3,286047002.0,N
1609835995.2,286046999.0,N
1609836015.0,286046999.5,N
1609836015.9,286046999.5,N
1609836035.7,286047001.2,N
1609836055.6,286047002.8,N
1609836075.4,286047006.7,N
1609836095.3,286047012.0,N
1609836115.1,286047004.7,N
1609836116.0,286047004.7,N
1609836135.8,286047004.0,N
1609836155.7,286047000.6,N
1609836175.5,286047001.6,N
1609836195.3,286047001.5,N
1609836215.2,286047003.6,N
1609836235.0,286047002.6,N
1609836235.9,286047002.6,N
1609836255.8,286047000.5,N
1609836275.6,286046998.6,N
1609836295.4,286046993.8,N
1609836315.3,286046994.9,N
1609836335.1,286047002.4,N
1609836355.8,286046996.2,N
1609836375.7,286046996.1,N
1609836395.5,286046999.4,N
1609836415.4,286046999.4,N
1609836435.2,286046996.0,N
1609836455.0,286047002.3,N
1609836455.9,286047002.3,N
1609836475.8,286047004.3,N
1609836495.6,286047000.8,N
1609836515.5,286046992.8,N
1609836535.3,286046986.9,Y
1609836555.1,286046992.5,P
1609836575.9,286046989.5,N
1609836595.7,286046992.6,N
1609836615.5,286046997.1,N
1609836635.4,286046988.6,N
1609836655.2,286046989.2,N
1609836675.1,286046987.6,N
1609836676.0,286046987.6,N
1609836695.8,286046986.5,Y
1609836715.6,286046997.4,P
1609836735.5,286046993.3,N
1609836755.3,286046996.9,N
1609836775.1,286047000.9,N
1609836795.9,286047002.9,N
1609836815.7,286046995.5,N
1609836835.6,286046997.9,N
1609836855.4,286046995.1,N
1609836875.2,286046993.0,N
1609836895.1,286046994.1,N
1609836896.0,286046994.1,N
1609836915.8,286047001.0,N
1609836935.6,286046991.8,N
1609836955.5,286046994.5,N
1609836975.3,286047005.7,N
1609836995.2,286046999.2,N
1609837015.9,286046997.3,N
1609837035.7,286046989.8,N
1609837055.6,286046996.2,N
1609837075.4,286046990.1,N
1609837095.2,286046986.7,Y
1609837115.1,286046990.4,P
1609837116.0,286046990.4,P
1609837135.8,286047000.2,N
1609837155.7,286046999.4,N
1609837175.5,286046996.8,N
1609837195.3,286046996.4,N
